TimeCET,TemperatureF,Dew PointF,Humidity,Sea Level PressureIn,VisibilityMPH,Wind Direction,Wind SpeedMPH,Gust SpeedMPH,PrecipitationIn,Events,Conditions,WindDirDegrees,DateUTC
12:15 AM,26.6,24.8,93,29.95,-9999.0,WNW,8.9,-,N/A,,Clear,290,2012-12-06 23:15:00
12:45 AM,26.6,23.0,86,29.98,-9999.0,WNW,8.9,-,N/A,,Clear,290,2012-12-06 23:45:00
1:15 AM,26.6,23.0,86,29.98,-9999.0,WNW,8.9,-,N/A,,Clear,290,2012-12-07 00:15:00
1:45 AM,24.8,21.2,86,29.98,-9999.0,WNW,8.9,-,N/A,,Clear,290,2012-12-07 00:45:00
2:15 AM,24.8,19.4,80,29.98,-9999.0,WNW,8.9,-,N/A,,Clear,290,2012-12-07 01:15:00
2:45 AM,24.8,21.2,86,29.98,-9999.0,WNW,8.9,-,N/A,,Clear,290,2012-12-07 01:45:00
3:15 AM,24.8,21.2,86,29.98,-9999.0,WNW,8.9,-,N/A,,Clear,290,2012-12-07 02:15:00
3:45 AM,24.8,21.2,86,29.98,-9999.0,WNW,6.7,-,N/A,,Clear,290,2012-12-07 02:45:00
4:15 AM,26.6,21.2,80,29.98,-9999.0,West,8.9,-,N/A,,Clear,280,2012-12-07 03:15:00
4:45 AM,26.6,21.2,80,29.98,-9999.0,West,6.7,-,N/A,,Clear,280,2012-12-07 03:45:00
5:15 AM,24.8,21.2,86,29.98,-9999.0,West,8.9,-,N/A,,Clear,270,2012-12-07 04:15:00
5:45 AM,-9999,-9999,N/A,-9999,-9999.0,West,8.9,-,N/A,,Clear,280,2012-12-07 04:45:00
6:15 AM,24.8,19.4,80,29.98,-9999.0,West,8.9,-,N/A,,Clear,270,2012-12-07 05:15:00
6:45 AM,24.8,19.4,80,30.01,-9999.0,West,8.9,-,N/A,,Clear,280,2012-12-07 05:45:00
7:15 AM,23.0,19.4,86,30.01,-9999.0,West,8.9,-,N/A,,Clear,280,2012-12-07 06:15:00
7:45 AM,23.0,19.4,86,30.01,-9999.0,West,8.9,-,N/A,,Clear,280,2012-12-07 06:45:00
8:15 AM,23.0,19.4,86,30.01,-9999.0,West,4.5,-,N/A,,Clear,280,2012-12-07 07:15:00
8:45 AM,-9999,-9999,N/A,-9999,-9999.0,West,6.7,-,N/A,,Clear,270,2012-12-07 07:45:00
9:15 AM,24.8,19.4,80,30.01,-9999.0,West,4.5,-,N/A,,Clear,280,2012-12-07 08:15:00
9:45 AM,26.6,19.4,74,30.01,-9999.0,West,4.5,-,N/A,,Clear,270,2012-12-07 08:45:00
10:15 AM,26.6,21.2,80,30.01,-9999.0,West,8.9,-,N/A,,Clear,270,2012-12-07 09:15:00
10:45 AM,26.6,17.6,69,30.01,-9999.0,West,6.7,-,N/A,,Clear,270,2012-12-07 09:45:00
11:15 AM,26.6,19.4,74,30.01,-9999.0,WNW,6.7,-,N/A,,Clear,300,2012-12-07 10:15:00
11:45 AM,-9999,-9999,N/A,-9999,-9999.0,West,6.7,-,N/A,,Clear,270,2012-12-07 10:45:00
12:15 PM,28.4,15.8,59,29.98,-9999.0,WNW,4.5,-,N/A,,Clear,300,2012-12-07 11:15:00
12:45 PM,28.4,17.6,64,29.98,-9999.0,WNW,4.5,-,N/A,,Clear,290,2012-12-07 11:45:00
1:15 PM,30.2,17.6,60,29.98,-9999.0,West,4.5,-,N/A,,Clear,270,2012-12-07 12:15:00
1:45 PM,30.2,17.6,60,29.98,-9999.0,West,4.5,-,N/A,,Clear,260,2012-12-07 12:45:00
2:15 PM,30.2,17.6,60,29.98,-9999.0,WSW,2.2,-,N/A,,Clear,240,2012-12-07 13:15:00
2:45 PM,-9999,-9999,N/A,-9999,-9999.0,West,6.7,-,N/A,,Clear,270,2012-12-07 13:45:00
3:15 PM,28.4,17.6,64,29.95,-9999.0,SW,2.2,-,N/A,,Clear,230,2012-12-07 14:15:00
3:45 PM,28.4,17.6,64,29.95,-9999.0,SW,2.2,-,N/A,,Clear,220,2012-12-07 14:45:00
4:15 PM,26.6,17.6,69,29.95,-9999.0,South,4.5,-,N/A,,Clear,180,2012-12-07 15:15:00
4:45 PM,26.6,17.6,69,29.95,-9999.0,South,4.5,-,N/A,,Clear,190,2012-12-07 15:45:00
5:15 PM,26.6,17.6,69,29.95,-9999.0,South,4.5,-,N/A,,Clear,180,2012-12-07 16:15:00
5:45 PM,-9999,-9999,N/A,-9999,0.5,South,6.7,-,N/A,,Clear,170,2012-12-07 16:45:00
6:15 PM,23.0,17.6,80,29.95,-9999.0,SSE,2.2,-,N/A,,Clear,150,2012-12-07 17:15:00
6:45 PM,21.2,17.6,86,29.95,-9999.0,SE,2.2,-,N/A,,Clear,140,2012-12-07 17:45:00
7:15 PM,17.6,15.8,93,29.95,-9999.0,SSE,2.2,-,N/A,,Clear,150,2012-12-07 18:15:00
7:45 PM,21.2,17.6,86,29.95,-9999.0,SE,2.2,-,N/A,,Clear,130,2012-12-07 18:45:00
8:15 PM,23.0,17.6,80,29.95,-9999.0,ESE,2.2,-,N/A,,Clear,110,2012-12-07 19:15:00
8:45 PM,-9999,-9999,N/A,-9999,0.5,East,6.7,-,N/A,,Clear,100,2012-12-07 19:45:00
9:15 PM,19.4,15.8,86,29.95,-9999.0,East,4.5,-,N/A,,Clear,100,2012-12-07 20:15:00
9:45 PM,21.2,17.6,86,29.95,-9999.0,East,4.5,-,N/A,,Clear,100,2012-12-07 20:45:00
10:15 PM,23.0,17.6,80,29.95,-9999.0,East,6.7,-,N/A,,Clear,90,2012-12-07 21:15:00
10:45 PM,21.2,15.8,80,29.95,-9999.0,East,6.7,-,N/A,,Clear,100,2012-12-07 21:45:00
11:15 PM,23.0,17.6,80,29.95,-9999.0,East,6.7,-,N/A,,Clear,100,2012-12-07 22:15:00
11:45 PM,-9999,-9999,N/A,-9999,0.5,North,-9999.0,-,N/A,,Unknown,0,2012-12-07 22:45:00